Theta_e
297 297 297 297 298 298 297 297 297 296 296 296 297 302 302 301 302 302 302 300 298 298 297 296 295 296 295 294 292 291 290 291 290 293 284 283 281 282 282 284 284 285 288
294 294 295 295 295 294 295 295 294 294 293 293 293 293 297 299 300 300 300 300 298 296 296 295 294 295 293 294 291 290 290 290 290 289 282 280 281 282 282 282 282 284 284
292 293 293 293 293 293 293 293 292 292 292 291 290 290 293 295 297 298 299 299 298 298 297 294 295 294 293 293 293 290 289 289 288 289 284 280 281 281 280 281 281 281 282
290 290 290 290 291 292 291 291 291 290 290 290 289 289 289 291 292 293 292 295 296 296 296 296 295 294 293 293 292 290 290 288 287 286 281 279 280 280 280 278 278 279 278
288 288 287 287 288 288 287 287 287 287 287 287 287 287 286 288 290 290 290 292 292 293 293 293 293 293 292 294 292 290 289 287 286 285 284 280 279 277 277 279 277 277 278
287 286 286 285 285 285 285 285 286 286 286 286 285 285 285 286 290 292 292 290 289 289 290 291 290 288 290 293 294 294 290 287 286 284 285 282 281 280 279 278 277 275 273
285 285 284 284 284 284 284 284 284 284 284 284 284 284 284 285 290 291 291 289 289 289 289 289 289 288 287 289 291 293 292 292 291 286 285 285 283 280 279 277 278 277 277
284 284 284 283 283 283 282 282 282 283 283 283 283 282 282 284 289 290 290 287 287 287 287 287 288 288 286 286 286 286 288 288 289 289 286 287 284 281 280 280 279 278 277
282 283 283 282 281 282 281 282 282 280 282 280 280 280 280 283 288 289 289 285 285 285 286 286 286 287 287 288 285 284 285 286 288 290 290 288 287 284 283 280 277 275 274
281 281 281 281 277 278 279 280 278 276 280 280 280 279 279 280 285 287 287 285 285 285 285 284 284 285 287 288 285 284 283 284 283 284 284 286 286 285 284 281 278 276 276
279 279 279 279 278 278 277 275 277 277 278 278 277 279 277 278 279 285 287 285 285 285 285 284 283 286 287 287 287 285 284 284 284 282 282 282 282 282 281 281 281 280 277
276 275 275 275 277 279 277 278 277 273 275 279 280 281 279 276 279 283 286 287 287 285 285 285 283 285 286 287 287 287 288 286 283 281 281 280 280 280 280 280 281 281 281
271 271 272 274 275 277 276 277 278 272 279 281 281 282 282 280 277 284 286 287 287 285 286 286 286 285 285 286 287 287 285 283 281 280 279 279 280 280 279 278 277 277 277
267 268 270 271 273 276 278 278 276 277 277 280 283 283 283 284 283 280 279 278 281 284 285 285 285 283 284 283 283 285 284 281 281 280 280 279 279 278 277 277 276 275 274
265 266 267 270 271 273 278 280 281 281 280 280 283 283 282 282 284 284 281 278 279 281 283 281 280 280 279 280 281 283 282 281 280 280 279 277 277 277 277 277 276 274 273
262 264 265 266 268 270 272 275 282 285 285 286 287 286 285 285 286 287 286 286 286 286 283 275 278 278 278 279 280 280 279 280 280 279 278 277 276 276 275 276 275 274 273
260 261 262 264 265 267 269 272 274 279 284 285 286 286 286 286 286 287 287 286 286 285 280 275 277 277 278 278 280 280 278 279 279 278 277 276 276 276 274 274 274 274 273
259 260 260 262 263 265 266 269 271 274 277 279 282 282 284 285 286 286 286 286 282 282 281 278 277 278 278 279 279 280 278 279 278 278 277 276 276 275 274 273 273 272 272
258 259 260 261 263 264 265 267 269 273 276 278 278 279 280 284 285 286 286 283 281 280 279 278 279 279 279 279 280 280 278 278 278 278 277 277 276 275 274 274 273 273 273
259 261 262 262 262 263 265 266 269 272 276 277 277 277 279 280 278 280 283 283 280 280 280 279 279 280 279 279 280 280 280 278 278 278 278 278 277 277 275 275 274 273 272
259 261 262 263 263 264 266 267 269 272 273 276 278 279 282 279 278 280 280 280 280 279 279 279 280 280 279 280 279 279 279 279 279 278 278 278 277 276 277 275 274 274 272
261 261 261 262 264 265 266 268 269 271 273 276 278 277 280 279 278 278 277 277 277 277 277 278 278 278 278 278 278 278 278 277 277 277 277 277 277 277 276 274 273 271 269
260 260 260 261 262 263 264 265 266 266 267 268 268 269 270 269 269 268 267 266 266 267 268 269 273 271 271 271 273 275 277 277 277 278 277 276 274 273 272 270 269 267 266
258 259 259 259 260 261 262 262 263 263 264 264 264 264 264 264 264 264 264 264 264 264 264 265 266 266 267 266 267 268 269 269 270 273 273 271 270 269 268 267 266 265 265
257 257 257 258 259 259 260 261 261 262 262 262 262 262 262 262 262 262 262 262 262 262 261 262 262 263 263 263 264 264 265 265 266 267 267 267 266 265 265 265 264 264 263
255 257 257 258 258 259 259 259 259 260 260 261 261 261 261 261 261 261 261 261 261 261 261 260 260 261 261 263 265 266 267 266 263 264 264 265 264 263 263 262 262 261 260
Wind_Speed
7 6 5 4 2 0 2 4 5 3 5 6 6 9 7 6 6 8 9 9 12 12 12 13 15 14 11 9 9 9 10 10 14 8 5 6 12 13 13 14 12 12 13
6 5 6 5 4 3 3 4 4 6 5 6 5 6 7 8 7 9 11 9 12 13 13 13 14 10 14 13 9 13 12 12 11 16 5 7 10 14 12 14 11 10 11
6 6 6 6 5 5 4 4 4 5 6 5 5 7 7 8 9 10 11 11 12 13 13 13 15 14 14 11 12 12 11 10 11 11 6 4 6 8 11 10 12 13 10
6 7 8 8 8 7 7 7 6 4 5 6 6 7 7 7 7 8 8 11 11 11 12 13 13 14 15 14 13 13 12 10 10 9 5 5 4 7 10 11 11 9 8
6 7 6 5 5 6 6 6 6 5 6 6 6 6 6 7 7 9 9 11 11 12 11 11 12 14 19 17 10 11 12 11 9 10 9 6 7 6 15 8 9 9 6
7 8 6 7 6 6 7 8 7 6 6 5 6 6 7 6 13 17 14 10 10 11 12 11 11 11 13 20 22 22 17 13 14 11 11 11 14 12 11 10 8 9 7
6 7 7 8 8 7 6 6 6 7 6 7 7 6 7 7 14 17 17 11 11 11 12 11 10 8 10 11 17 22 23 27 24 15 14 16 13 14 13 14 12 12 9
7 7 6 8 8 8 7 7 7 5 6 7 7 6 7 7 14 16 17 11 11 12 13 12 12 11 10 11 11 12 14 15 17 14 14 11 10 13 16 13 14 10 6
9 9 9 8 9 10 10 10 9 6 8 5 5 7 7 9 14 16 14 8 10 12 12 12 12 12 13 20 12 13 13 13 14 22 15 13 17 24 18 10 10 12 6
10 10 10 8 6 7 7 9 4 4 8 6 9 6 8 11 13 16 14 7 11 9 10 11 15 13 18 21 14 12 13 11 9 9 10 14 17 18 26 14 13 13 8
9 9 10 9 9 9 8 4 6 7 7 8 8 8 8 8 10 18 18 9 9 10 9 8 8 19 22 22 23 12 13 7 12 9 8 7 8 11 10 10 12 11 11
10 10 11 11 9 9 9 9 9 5 7 9 9 10 5 7 12 14 19 20 17 11 12 9 7 17 19 21 18 19 17 12 7 7 8 9 9 10 9 8 9 7 6
11 10 11 12 11 10 9 11 9 4 6 9 8 10 11 5 5 15 18 19 20 14 10 13 15 16 18 15 20 18 14 8 8 8 8 7 7 7 9 8 7 8 7
9 11 11 11 12 10 8 8 8 8 7 8 9 10 11 10 7 5 6 6 12 13 15 12 11 13 13 10 6 9 8 8 8 8 7 6 6 8 7 7 6 5 4
9 9 9 9 11 12 11 10 11 11 10 10 10 9 9 11 9 10 9 5 6 9 10 3 5 5 6 5 5 7 8 7 8 6 6 7 6 7 6 7 6 6 3
9 7 8 9 9 9 11 13 18 22 25 23 25 20 11 19 24 21 20 18 20 19 7 3 5 6 6 5 5 6 5 8 7 7 6 7 7 8 7 6 6 6 6
9 10 8 9 9 9 10 11 14 15 23 24 24 24 24 23 23 22 18 18 19 15 6 4 4 4 5 5 5 6 5 7 8 7 7 7 7 6 9 8 7 6 5
9 12 9 9 9 9 10 11 11 12 14 14 13 16 20 21 20 18 18 14 6 6 4 5 5 5 5 5 5 3 5 6 7 6 7 8 8 9 8 8 8 8 7
9 8 9 9 9 11 11 11 11 12 13 13 10 10 12 17 17 18 17 6 4 4 3 5 5 5 5 4 4 5 6 6 7 7 7 7 8 8 8 8 8 11 9
8 13 12 10 10 10 9 10 11 11 12 10 9 9 7 6 4 6 5 4 4 4 3 6 5 5 4 4 4 4 4 6 6 6 7 7 7 8 8 8 8 9 8
7 9 12 9 9 9 10 10 11 11 12 11 10 9 16 7 5 4 3 3 3 3 3 4 5 4 4 4 4 4 4 4 5 6 6 6 7 7 7 7 7 7 6
8 8 9 9 9 9 10 10 11 10 11 11 8 6 14 6 3 1 2 3 3 3 2 1 2 3 3 4 5 5 5 5 5 5 5 5 6 6 6 6 6 6 7
7 9 9 8 8 11 9 8 8 9 9 8 8 8 8 7 7 6 5 5 5 5 5 4 3 3 4 3 3 1 4 5 5 5 5 5 5 5 6 5 7 6 6
7 8 8 8 8 8 8 8 8 9 9 8 8 7 7 7 7 7 6 6 5 6 6 6 5 6 5 5 4 4 4 3 3 3 5 5 5 6 5 5 6 5 6
7 7 7 8 8 8 9 8 8 8 8 8 8 7 7 7 6 7 7 6 6 6 7 7 6 7 8 8 8 7 8 8 6 4 3 4 5 7 5 5 6 6 6
6 7 6 7 7 7 8 8 8 8 8 8 7 7 7 7 7 7 6 7 6 6 6 6 7 9 8 6 6 7 7 7 6 6 3 4 5 4 4 6 8 6 7
Wind_Direction
28 31 33 12 18 316 239 257 246 245 231 223 220 235 228 215 202 207 222 216 216 224 221 222 227 224 228 220 212 215 220 218 242 240 187 174 192 199 199 195 200 201 210
15 30 30 14 14 3 313 293 279 260 254 247 238 228 223 232 222 223 229 222 220 224 224 225 226 222 229 226 212 216 220 217 227 245 169 187 196 198 197 194 191 197 198
11 33 27 19 19 7 341 313 293 280 273 264 243 240 234 228 223 226 230 233 231 229 227 224 228 222 227 224 220 215 217 219 219 235 217 184 196 186 195 192 196 203 194
15 32 28 10 359 352 340 330 320 302 279 265 241 242 236 234 232 237 235 241 241 238 234 230 227 224 227 225 224 216 217 215 212 217 190 185 184 177 191 187 197 201 187
27 33 22 2 356 353 348 334 318 304 283 270 266 247 239 226 232 229 229 239 244 249 242 235 230 225 225 224 221 220 211 209 207 209 213 199 187 170 196 183 186 177 188
20 18 360 11 2 353 348 341 334 321 310 288 272 263 262 249 244 240 238 237 238 242 247 243 238 234 232 230 228 228 210 208 213 207 217 215 211 201 183 181 169 164 184
13 4 3 358 352 345 329 327 330 324 313 300 284 261 255 251 253 251 247 246 245 245 246 247 243 230 227 234 240 236 229 221 217 209 222 218 212 190 168 170 181 183 186
7 359 355 351 339 333 334 328 320 307 307 301 292 271 265 260 263 260 256 248 250 252 248 241 240 238 216 219 231 239 237 229 227 224 225 227 206 177 183 181 174 160 109
5 352 345 343 331 330 330 328 323 315 320 292 275 283 273 279 277 276 269 252 251 250 245 243 242 241 226 221 228 233 236 236 231 228 226 185 169 176 173 153 162 157 155
350 335 327 323 310 308 300 303 278 275 286 289 292 263 260 271 271 274 275 265 261 257 250 243 234 236 238 228 227 222 237 232 207 198 182 180 184 185 177 173 165 172 160
330 324 322 320 311 300 293 284 288 294 297 296 285 280 250 248 266 269 265 258 258 265 258 247 226 236 239 240 234 232 227 199 196 183 174 167 171 174 180 179 178 180 173
330 323 321 317 316 309 298 298 291 281 291 296 295 295 264 237 242 263 268 263 261 260 260 254 227 224 238 243 240 241 223 199 187 188 179 174 172 177 170 162 169 165 171
332 328 321 315 309 305 299 298 300 277 279 289 289 294 295 278 232 255 272 272 269 264 260 260 236 227 233 243 246 238 220 188 182 180 179 172 175 157 136 125 106 105 103
320 318 313 309 309 308 303 296 286 285 279 276 284 284 286 287 278 230 253 265 272 271 262 264 225 219 214 222 229 237 196 177 183 182 178 149 135 139 149 152 151 145 116
312 304 303 305 309 304 293 294 292 280 260 275 281 278 281 282 283 276 259 252 252 262 274 230 210 204 201 216 216 211 180 172 185 174 158 151 152 157 161 162 143 149 146
312 312 311 305 304 298 296 298 281 282 285 278 272 269 269 263 277 275 272 279 280 277 262 194 219 213 209 207 201 190 171 174 168 166 157 160 164 167 162 162 143 170 174
310 311 307 302 296 297 298 297 302 302 288 286 283 278 277 277 275 275 265 270 280 271 251 207 215 212 210 207 207 198 163 173 152 160 157 162 163 164 159 166 168 171 177
299 294 291 292 292 294 293 292 291 289 296 295 283 273 278 280 280 275 270 275 271 254 244 191 197 204 211 208 204 183 157 156 165 165 167 167 168 168 170 173 181 181 182
304 299 294 293 292 290 290 285 281 283 283 286 292 281 271 270 274 272 257 252 241 232 196 191 191 199 207 198 193 193 167 172 176 173 176 174 173 172 181 182 182 185 176
295 290 291 293 290 290 287 287 290 287 290 283 284 282 281 262 256 252 237 231 206 216 180 194 193 192 194 194 193 187 158 169 177 182 182 180 180 181 181 181 183 180 186
298 298 295 290 289 290 291 290 288 291 293 291 285 279 278 264 258 252 244 210 207 199 188 191 197 196 187 187 182 182 186 176 180 186 185 182 180 185 182 182 180 181 172
311 309 307 305 305 308 308 307 303 307 309 306 301 301 317 298 248 256 328 10 16 25 16 174 180 178 172 185 180 172 177 172 173 180 182 177 182 183 173 169 165 159 157
319 321 319 317 317 320 321 327 331 334 334 343 352 360 2 7 20 29 29 14 23 16 3 6 50 62 38 36 31 73 175 186 186 179 181 171 160 153 158 156 154 149 162
334 330 325 323 332 335 334 337 341 347 353 354 359 6 10 9 8 21 11 4 28 23 18 23 37 46 40 32 28 26 43 45 55 115 136 149 149 146 145 146 161 158 154
332 333 333 336 341 341 337 345 349 353 358 0 3 5 4 9 16 14 9 5 20 27 21 19 25 33 39 40 40 36 43 48 53 65 89 114 137 143 137 139 142 138 132
329 331 334 338 344 347 345 344 350 352 356 358 0 3 7 8 11 11 10 17 14 28 28 27 26 32 32 30 43 45 54 57 54 60 75 101 121 120 127 132 137 137 141